Starlink 32908

operational
NORAD ID: 63084 Int'l Des: 2025-037 Owner: SPXS Country: US Constellation: starlink
LEOCIRCULAR

About Starlink 32908

Description loading...

Live Position

Loading 3D Globe...

Upcoming Passes

Altitude History

Altitude vs Time

uPlot chart will show altitude changes over time

Two-Line Element Set

1 63084U 25037H 25306.45345891 .00000422 00000-0 43177-4 0 9997
2 63084 70.0007 315.2485 0003516 272.4966 87.5790 14.98337575 39400
Epoch: Nov 2, 2025 • Age: 19 hours

Current Status

Altitude 576.2 km
Velocity 7.57 km/s
Sub-Earth Point 28.50°N, 171.89°W
Launch Date Feb 23, 2025
Age 0.6 years
Type internet

Technical Details

Classification Payload
Mass 730.00 kg
Dry Mass 700.00 kg
Total Mass 730.00 kg
Length 0.30 m
Diameter 4.10 m
Span 29.00 m
Shape Box + pan
Manufacturer SPXS
Bus Type Starlink V2M
Phase Status In Orbit
Owner/State SPXS/US

Large Constellations

Loading constellations...